Year,Month,Day,Hour,Minute,Value (Times are PST for temperature in C)
2015,04,02,00,00,5.40
2015,04,02,00,01,5.50
2015,04,02,00,02,5.50
2015,04,02,00,03,5.60
2015,04,02,00,04,5.70
2015,04,02,00,05,5.70
2015,04,02,00,06,5.80
2015,04,02,00,07,5.80
2015,04,02,00,08,5.80
2015,04,02,00,09,5.80
2015,04,02,00,10,5.70
2015,04,02,00,11,5.70
2015,04,02,00,12,5.70
2015,04,02,00,13,5.70
2015,04,02,00,14,5.60
2015,04,02,00,15,5.50
2015,04,02,00,16,5.50
2015,04,02,00,17,5.40
2015,04,02,00,18,5.40
2015,04,02,00,19,5.30
2015,04,02,00,20,5.20
2015,04,02,00,21,5.10
2015,04,02,00,22,5.10
2015,04,02,00,23,5.00
2015,04,02,00,24,4.90
2015,04,02,00,25,4.90
2015,04,02,00,26,4.80
2015,04,02,00,27,4.80
2015,04,02,00,28,4.80
2015,04,02,00,29,4.80
2015,04,02,00,30,4.80
2015,04,02,00,31,4.80
2015,04,02,00,32,4.80
2015,04,02,00,33,4.80
2015,04,02,00,34,4.80
2015,04,02,00,35,4.80
2015,04,02,00,36,4.70
2015,04,02,00,37,4.70
2015,04,02,00,38,4.70
2015,04,02,00,39,4.70
2015,04,02,00,40,4.60
2015,04,02,00,41,4.60
2015,04,02,00,42,4.50
2015,04,02,00,43,4.40
2015,04,02,00,44,4.40
2015,04,02,00,45,4.30
2015,04,02,00,46,4.30
2015,04,02,00,47,4.30
2015,04,02,00,48,4.20
2015,04,02,00,49,4.20
2015,04,02,00,50,4.20
2015,04,02,00,51,4.20
2015,04,02,00,52,4.10
2015,04,02,00,53,4.10
2015,04,02,00,54,4.10
2015,04,02,00,55,4.10
2015,04,02,00,56,4.10
2015,04,02,00,57,4.10
2015,04,02,00,58,4.10
2015,04,02,00,59,4.20
2015,04,02,01,00,4.20
2015,04,02,01,01,4.20
2015,04,02,01,02,4.20
2015,04,02,01,03,4.30
2015,04,02,01,04,4.30
2015,04,02,01,05,4.30
2015,04,02,01,06,4.40
2015,04,02,01,07,4.40
2015,04,02,01,08,4.40
2015,04,02,01,09,4.50
2015,04,02,01,10,4.50
2015,04,02,01,11,4.50
2015,04,02,01,12,4.60
2015,04,02,01,13,4.60
2015,04,02,01,14,4.70
2015,04,02,01,15,4.70
2015,04,02,01,16,4.70
2015,04,02,01,17,4.70
2015,04,02,01,18,4.70
2015,04,02,01,19,4.70
2015,04,02,01,20,4.70
2015,04,02,01,21,4.70
2015,04,02,01,22,4.70
2015,04,02,01,23,4.60
2015,04,02,01,24,4.60
2015,04,02,01,25,4.60
2015,04,02,01,26,4.60
2015,04,02,01,27,4.60
2015,04,02,01,28,4.50
2015,04,02,01,29,4.50
2015,04,02,01,30,4.40
2015,04,02,01,31,4.40
2015,04,02,01,32,4.30
2015,04,02,01,33,4.20
2015,04,02,01,34,4.20
2015,04,02,01,35,4.20
2015,04,02,01,36,4.10
2015,04,02,01,37,4.10
2015,04,02,01,38,4.00
2015,04,02,01,39,4.00
2015,04,02,01,40,3.90
2015,04,02,01,41,3.90
2015,04,02,01,42,3.80
2015,04,02,01,43,3.80
2015,04,02,01,44,3.80
2015,04,02,01,45,3.70
2015,04,02,01,46,3.70
2015,04,02,01,47,3.60
2015,04,02,01,48,3.60
2015,04,02,01,49,3.50
2015,04,02,01,50,3.50
2015,04,02,01,51,3.40
2015,04,02,01,52,3.30
2015,04,02,01,53,3.30
2015,04,02,01,54,3.30
2015,04,02,01,55,3.20
2015,04,02,01,56,3.20
2015,04,02,01,57,3.20
2015,04,02,01,58,3.20
2015,04,02,01,59,3.20
2015,04,02,02,00,3.20
2015,04,02,02,01,3.20
2015,04,02,02,02,3.20
2015,04,02,02,03,3.20
2015,04,02,02,04,3.20
2015,04,02,02,05,3.20
2015,04,02,02,06,3.30
2015,04,02,02,07,3.30
2015,04,02,02,08,3.30
2015,04,02,02,09,3.30
2015,04,02,02,10,3.30
2015,04,02,02,11,3.30
2015,04,02,02,12,3.30
2015,04,02,02,13,3.30
2015,04,02,02,14,3.30
2015,04,02,02,15,3.30
2015,04,02,02,16,3.30
2015,04,02,02,17,3.30
2015,04,02,02,18,3.30
2015,04,02,02,19,3.20
2015,04,02,02,20,3.20
2015,04,02,02,21,3.20
2015,04,02,02,22,3.10
2015,04,02,02,23,3.10
2015,04,02,02,24,3.10
2015,04,02,02,25,3.10
2015,04,02,02,26,3.10
2015,04,02,02,27,3.10
2015,04,02,02,28,3.10
2015,04,02,02,29,3.10
2015,04,02,02,30,3.10
2015,04,02,02,31,3.20
2015,04,02,02,32,3.20
2015,04,02,02,33,3.20
2015,04,02,02,34,3.30
2015,04,02,02,35,3.30
2015,04,02,02,36,3.40
2015,04,02,02,37,3.50
2015,04,02,02,38,3.50
2015,04,02,02,39,3.60
2015,04,02,02,40,3.60
2015,04,02,02,41,3.60
2015,04,02,02,42,3.60
2015,04,02,02,43,3.70
2015,04,02,02,44,3.70
2015,04,02,02,45,3.70
2015,04,02,02,46,3.80
2015,04,02,02,47,3.80
2015,04,02,02,48,3.80
2015,04,02,02,49,3.80
2015,04,02,02,50,3.80
2015,04,02,02,51,3.80
2015,04,02,02,52,3.80
2015,04,02,02,53,3.80
2015,04,02,02,54,3.80
2015,04,02,02,55,3.80
2015,04,02,02,56,3.80
2015,04,02,02,57,3.80
2015,04,02,02,58,3.80
2015,04,02,02,59,3.80
2015,04,02,03,00,3.80
2015,04,02,03,01,3.80
2015,04,02,03,02,3.80
2015,04,02,03,03,3.80
2015,04,02,03,04,3.80
2015,04,02,03,05,3.70
2015,04,02,03,06,3.70
2015,04,02,03,07,3.70
2015,04,02,03,08,3.70
2015,04,02,03,09,3.70
2015,04,02,03,10,3.70
2015,04,02,03,11,3.70
2015,04,02,03,12,3.70
2015,04,02,03,13,3.70
2015,04,02,03,14,3.70
2015,04,02,03,15,3.70
2015,04,02,03,16,3.70
2015,04,02,03,17,3.70
2015,04,02,03,18,3.70
2015,04,02,03,19,3.70
2015,04,02,03,20,3.80
2015,04,02,03,21,3.80
2015,04,02,03,22,3.80
2015,04,02,03,23,3.80
2015,04,02,03,24,3.80
2015,04,02,03,25,3.80
2015,04,02,03,26,3.80
2015,04,02,03,27,3.80
2015,04,02,03,28,3.90
2015,04,02,03,29,3.90
2015,04,02,03,30,3.90
2015,04,02,03,31,3.90
2015,04,02,03,32,3.90
2015,04,02,03,33,3.90
2015,04,02,03,34,3.90
2015,04,02,03,35,4.00
2015,04,02,03,36,4.00
2015,04,02,03,37,4.00
2015,04,02,03,38,4.00
2015,04,02,03,39,4.10
2015,04,02,03,40,4.10
2015,04,02,03,41,4.10
2015,04,02,03,42,4.10
2015,04,02,03,43,4.10
2015,04,02,03,44,4.10
2015,04,02,03,45,4.10
2015,04,02,03,46,4.00
2015,04,02,03,47,4.00
2015,04,02,03,48,4.00
2015,04,02,03,49,3.90
2015,04,02,03,50,3.90
2015,04,02,03,51,3.90
2015,04,02,03,52,3.90
2015,04,02,03,53,4.00
2015,04,02,03,54,4.00
2015,04,02,03,55,4.00
2015,04,02,03,56,4.10
2015,04,02,03,57,4.10
2015,04,02,03,58,4.10
2015,04,02,03,59,4.10
2015,04,02,04,00,4.10
2015,04,02,04,01,4.10
2015,04,02,04,02,4.00
2015,04,02,04,03,4.00
2015,04,02,04,04,4.00
2015,04,02,04,05,4.00
2015,04,02,04,06,3.90
2015,04,02,04,07,3.90
2015,04,02,04,08,3.90
2015,04,02,04,09,3.90
2015,04,02,04,10,3.90
2015,04,02,04,11,3.90
2015,04,02,04,12,3.90
2015,04,02,04,13,3.90
2015,04,02,04,14,3.90
2015,04,02,04,15,3.90
2015,04,02,04,16,3.90
2015,04,02,04,17,3.90
2015,04,02,04,18,3.90
2015,04,02,04,19,3.90
2015,04,02,04,20,3.90
2015,04,02,04,21,3.90
2015,04,02,04,22,3.90
2015,04,02,04,23,3.90
2015,04,02,04,24,3.90
2015,04,02,04,25,3.90
2015,04,02,04,26,3.80
2015,04,02,04,27,3.80
2015,04,02,04,28,3.80
2015,04,02,04,29,3.80
2015,04,02,04,30,3.80
2015,04,02,04,31,3.80
2015,04,02,04,32,3.80
2015,04,02,04,33,3.70
2015,04,02,04,34,3.70
2015,04,02,04,35,3.70
2015,04,02,04,36,3.70
2015,04,02,04,37,3.60
2015,04,02,04,38,3.60
2015,04,02,04,39,3.50
2015,04,02,04,40,3.50
2015,04,02,04,41,3.40
2015,04,02,04,42,3.40
2015,04,02,04,43,3.40
2015,04,02,04,44,3.40
2015,04,02,04,45,3.30
2015,04,02,04,46,3.30
2015,04,02,04,47,3.30
2015,04,02,04,48,3.30
2015,04,02,04,49,3.30
2015,04,02,04,50,3.30
2015,04,02,04,51,3.20
2015,04,02,04,52,3.20
2015,04,02,04,53,3.20
2015,04,02,04,54,3.20
2015,04,02,04,55,3.10
2015,04,02,04,56,3.10
2015,04,02,04,57,3.10
2015,04,02,04,58,3.10
2015,04,02,04,59,3.00
2015,04,02,05,00,3.00
2015,04,02,05,01,3.00
2015,04,02,05,02,3.00
2015,04,02,05,03,2.90
2015,04,02,05,04,2.90
2015,04,02,05,05,2.90
2015,04,02,05,06,2.90
2015,04,02,05,07,2.90
2015,04,02,05,08,2.90
2015,04,02,05,09,2.90
2015,04,02,05,10,2.90
2015,04,02,05,11,2.80
2015,04,02,05,12,2.80
2015,04,02,05,13,2.80
2015,04,02,05,14,2.70
2015,04,02,05,15,2.70
2015,04,02,05,16,2.70
2015,04,02,05,17,2.70
2015,04,02,05,18,2.60
2015,04,02,05,19,2.60
2015,04,02,05,20,2.60
2015,04,02,05,21,2.60
2015,04,02,05,22,2.50
2015,04,02,05,23,2.50
2015,04,02,05,24,2.50
2015,04,02,05,25,2.40
2015,04,02,05,26,2.40
2015,04,02,05,27,2.40
2015,04,02,05,28,2.40
2015,04,02,05,29,2.40
2015,04,02,05,30,2.40
2015,04,02,05,31,2.30
2015,04,02,05,32,2.30
2015,04,02,05,33,2.30
2015,04,02,05,34,2.30
2015,04,02,05,35,2.20
2015,04,02,05,36,2.20
2015,04,02,05,37,2.20
2015,04,02,05,38,2.20
2015,04,02,05,39,2.20
2015,04,02,05,40,2.20
2015,04,02,05,41,2.10
2015,04,02,05,42,2.10
2015,04,02,05,43,2.10
2015,04,02,05,44,2.10
2015,04,02,05,45,2.00
2015,04,02,05,46,2.00
2015,04,02,05,47,2.00
2015,04,02,05,48,1.90
2015,04,02,05,49,1.90
2015,04,02,05,50,1.90
2015,04,02,05,51,1.90
2015,04,02,05,52,1.90
2015,04,02,05,53,1.90
2015,04,02,05,54,1.90
2015,04,02,05,55,1.90
2015,04,02,05,56,1.90
2015,04,02,05,57,1.90
2015,04,02,05,58,1.90
2015,04,02,05,59,1.90
2015,04,02,06,00,1.80
2015,04,02,06,01,1.80
2015,04,02,06,02,1.80
2015,04,02,06,03,1.80
2015,04,02,06,04,1.80
2015,04,02,06,05,1.80
2015,04,02,06,06,1.70
2015,04,02,06,07,1.70
2015,04,02,06,08,1.70
2015,04,02,06,09,1.70
2015,04,02,06,10,1.70
2015,04,02,06,11,1.70
2015,04,02,06,12,1.60
2015,04,02,06,13,1.60
2015,04,02,06,14,1.60
2015,04,02,06,15,1.60
2015,04,02,06,16,1.70
2015,04,02,06,17,1.70
2015,04,02,06,18,1.70
2015,04,02,06,19,1.70
2015,04,02,06,20,1.70
2015,04,02,06,21,1.70
2015,04,02,06,22,1.70
2015,04,02,06,23,1.70
2015,04,02,06,24,1.70
2015,04,02,06,25,1.70
2015,04,02,06,26,1.70
2015,04,02,06,27,1.70
2015,04,02,06,28,1.70
2015,04,02,06,29,1.70
2015,04,02,06,30,1.70
2015,04,02,06,31,1.70
2015,04,02,06,32,1.70
2015,04,02,06,33,1.70
2015,04,02,06,34,1.70
2015,04,02,06,35,1.70
2015,04,02,06,36,1.70
2015,04,02,06,37,1.70
2015,04,02,06,38,1.60
2015,04,02,06,39,1.60
2015,04,02,06,40,1.60
2015,04,02,06,41,1.60
2015,04,02,06,42,1.60
2015,04,02,06,43,1.60
2015,04,02,06,44,1.60
2015,04,02,06,45,1.60
2015,04,02,06,46,1.60
2015,04,02,06,47,1.60
2015,04,02,06,48,1.60
2015,04,02,06,49,1.60
2015,04,02,06,50,1.60
2015,04,02,06,51,1.60
2015,04,02,06,52,1.60
2015,04,02,06,53,1.60
2015,04,02,06,54,1.60
2015,04,02,06,55,1.60
2015,04,02,06,56,1.60
2015,04,02,06,57,1.50
2015,04,02,06,58,1.50
2015,04,02,06,59,1.50
2015,04,02,07,00,1.50
2015,04,02,07,01,1.50
2015,04,02,07,02,1.50
2015,04,02,07,03,1.50
2015,04,02,07,04,1.50
2015,04,02,07,05,1.50
2015,04,02,07,06,1.50
2015,04,02,07,07,1.60
2015,04,02,07,08,1.60
2015,04,02,07,09,1.60
2015,04,02,07,10,1.60
2015,04,02,07,11,1.60
2015,04,02,07,12,1.60
2015,04,02,07,13,1.60
2015,04,02,07,14,1.60
2015,04,02,07,15,1.60
2015,04,02,07,16,1.60
2015,04,02,07,17,1.50
2015,04,02,07,18,1.50
2015,04,02,07,19,1.50
2015,04,02,07,20,1.50
2015,04,02,07,21,1.40
2015,04,02,07,22,1.40
2015,04,02,07,23,1.40
2015,04,02,07,24,1.40
2015,04,02,07,25,1.40
2015,04,02,07,26,1.40
2015,04,02,07,27,1.40
2015,04,02,07,28,1.40
2015,04,02,07,29,1.40
2015,04,02,07,30,1.40
2015,04,02,07,31,1.40
2015,04,02,07,32,1.40
2015,04,02,07,33,1.40
2015,04,02,07,34,1.40
2015,04,02,07,35,1.40
2015,04,02,07,36,1.40
2015,04,02,07,37,1.40
2015,04,02,07,38,1.50
2015,04,02,07,39,1.50
2015,04,02,07,40,1.60
2015,04,02,07,41,1.60
2015,04,02,07,42,1.60
2015,04,02,07,43,1.60
2015,04,02,07,44,1.70
2015,04,02,07,45,1.70
2015,04,02,07,46,1.70
2015,04,02,07,47,1.70
2015,04,02,07,48,1.70
2015,04,02,07,49,1.80
2015,04,02,07,50,1.80
2015,04,02,07,51,1.80
2015,04,02,07,52,1.90
2015,04,02,07,53,1.90
2015,04,02,07,54,1.90
2015,04,02,07,55,2.00
2015,04,02,07,56,2.00
2015,04,02,07,57,2.10
2015,04,02,07,58,2.10
2015,04,02,07,59,2.10
2015,04,02,08,00,2.20
2015,04,02,08,01,2.20
2015,04,02,08,02,2.30
2015,04,02,08,03,2.30
2015,04,02,08,04,2.40
2015,04,02,08,05,2.40
2015,04,02,08,06,2.50
2015,04,02,08,07,2.60
2015,04,02,08,08,2.60
2015,04,02,08,09,2.70
2015,04,02,08,10,2.70
2015,04,02,08,11,2.70
2015,04,02,08,12,2.80
2015,04,02,08,13,2.80
2015,04,02,08,14,2.80
2015,04,02,08,15,2.90
2015,04,02,08,16,2.90
2015,04,02,08,17,2.90
2015,04,02,08,18,3.00
2015,04,02,08,19,3.00
2015,04,02,08,20,3.10
2015,04,02,08,21,3.20
2015,04,02,08,22,3.30
2015,04,02,08,23,3.30
2015,04,02,08,24,3.30
2015,04,02,08,25,3.40
2015,04,02,08,26,3.40
2015,04,02,08,27,3.50
2015,04,02,08,28,3.50
2015,04,02,08,29,3.60
2015,04,02,08,30,3.70
2015,04,02,08,31,3.70
2015,04,02,08,32,3.70
2015,04,02,08,33,3.80
2015,04,02,08,34,3.80
2015,04,02,08,35,3.90
2015,04,02,08,36,3.90
2015,04,02,08,37,3.90
2015,04,02,08,38,4.00
2015,04,02,08,39,4.10
2015,04,02,08,40,4.10
2015,04,02,08,41,4.10
2015,04,02,08,42,4.20
2015,04,02,08,43,4.20
2015,04,02,08,44,4.30
2015,04,02,08,45,4.30
2015,04,02,08,46,4.30
2015,04,02,08,47,4.40
2015,04,02,08,48,4.40
2015,04,02,08,49,4.50
2015,04,02,08,50,4.60
2015,04,02,08,51,4.60
2015,04,02,08,52,4.60
2015,04,02,08,53,4.70
2015,04,02,08,54,4.70
2015,04,02,08,55,4.70
2015,04,02,08,56,4.80
2015,04,02,08,57,4.80
2015,04,02,08,58,4.70
2015,04,02,08,59,4.70
2015,04,02,09,00,4.70
2015,04,02,09,01,4.70
2015,04,02,09,02,4.70
2015,04,02,09,03,4.70
2015,04,02,09,04,4.70
2015,04,02,09,05,4.80
2015,04,02,09,06,4.80
2015,04,02,09,07,4.80
2015,04,02,09,08,4.80
2015,04,02,09,09,4.80
2015,04,02,09,10,4.90
2015,04,02,09,11,4.90
2015,04,02,09,12,5.00
2015,04,02,09,13,5.00
2015,04,02,09,14,5.00
2015,04,02,09,15,5.10
2015,04,02,09,16,5.10
2015,04,02,09,17,5.10
2015,04,02,09,18,5.20
2015,04,02,09,19,5.30
2015,04,02,09,20,5.30
2015,04,02,09,21,5.40
2015,04,02,09,22,5.40
2015,04,02,09,23,5.50
2015,04,02,09,24,5.50
2015,04,02,09,25,5.60
2015,04,02,09,26,5.60
2015,04,02,09,27,5.60
2015,04,02,09,28,5.60
2015,04,02,09,29,5.70
2015,04,02,09,30,5.70
2015,04,02,09,31,5.70
2015,04,02,09,32,5.70
2015,04,02,09,33,5.80
2015,04,02,09,34,5.80
2015,04,02,09,35,5.80
2015,04,02,09,36,5.90
2015,04,02,09,37,6.00
2015,04,02,09,38,6.00
2015,04,02,09,39,6.10
2015,04,02,09,40,6.10
2015,04,02,09,41,6.20
2015,04,02,09,42,6.20
2015,04,02,09,43,6.20
2015,04,02,09,44,6.30
2015,04,02,09,45,6.30
2015,04,02,09,46,6.40
2015,04,02,09,47,6.50
2015,04,02,09,48,6.50
2015,04,02,09,49,6.60
2015,04,02,09,50,6.70
2015,04,02,09,51,6.70
2015,04,02,09,52,6.80
2015,04,02,09,53,6.80
2015,04,02,09,54,6.90
2015,04,02,09,55,6.90
2015,04,02,09,56,7.00
2015,04,02,09,57,7.10
2015,04,02,09,58,7.10
2015,04,02,09,59,7.20
2015,04,02,10,00,7.20
2015,04,02,10,01,7.30
2015,04,02,10,02,7.30
2015,04,02,10,03,7.30
2015,04,02,10,04,7.30
2015,04,02,10,05,7.40
2015,04,02,10,06,7.40
2015,04,02,10,07,7.40
2015,04,02,10,08,7.50
2015,04,02,10,09,7.50
2015,04,02,10,10,7.40
2015,04,02,10,11,7.40
2015,04,02,10,12,7.40
2015,04,02,10,13,7.40
2015,04,02,10,14,7.40
2015,04,02,10,15,7.30
2015,04,02,10,16,7.30
2015,04,02,10,17,7.30
2015,04,02,10,18,7.20
2015,04,02,10,19,7.20
2015,04,02,10,20,7.20
2015,04,02,10,21,7.20
2015,04,02,10,22,7.20
2015,04,02,10,23,7.20
2015,04,02,10,24,7.20
2015,04,02,10,25,7.30
2015,04,02,10,26,7.30
2015,04,02,10,27,7.30
2015,04,02,10,28,7.40
2015,04,02,10,29,7.40
2015,04,02,10,30,7.40
2015,04,02,10,31,7.50
2015,04,02,10,32,7.60
2015,04,02,10,33,7.60
2015,04,02,10,34,7.70
2015,04,02,10,35,7.70
2015,04,02,10,36,7.70
2015,04,02,10,37,7.70
2015,04,02,10,38,7.70
2015,04,02,10,39,7.70
2015,04,02,10,40,7.60
2015,04,02,10,41,7.60
2015,04,02,10,42,7.50
2015,04,02,10,43,7.50
2015,04,02,10,44,7.40
2015,04,02,10,45,7.40
2015,04,02,10,46,7.40
2015,04,02,10,47,7.40
2015,04,02,10,48,7.40
2015,04,02,10,49,7.50
2015,04,02,10,50,7.50
2015,04,02,10,51,7.60
2015,04,02,10,52,7.70
2015,04,02,10,53,7.80
2015,04,02,10,54,7.90
2015,04,02,10,55,8.00
2015,04,02,10,56,8.00
2015,04,02,10,57,8.10
2015,04,02,10,58,8.20
2015,04,02,10,59,8.20
2015,04,02,11,00,8.30
2015,04,02,11,01,8.30
2015,04,02,11,02,8.30
2015,04,02,11,03,8.40
2015,04,02,11,04,8.40
2015,04,02,11,05,8.40
2015,04,02,11,06,8.40
2015,04,02,11,07,8.40
2015,04,02,11,08,8.40
2015,04,02,11,09,8.40
2015,04,02,11,10,8.40
2015,04,02,11,11,8.40
2015,04,02,11,12,8.40
2015,04,02,11,13,8.40
2015,04,02,11,14,8.40
2015,04,02,11,15,8.40
2015,04,02,11,16,8.30
2015,04,02,11,17,8.40
2015,04,02,11,18,8.40
2015,04,02,11,19,8.40
2015,04,02,11,20,8.40
2015,04,02,11,21,8.40
2015,04,02,11,22,8.50
2015,04,02,11,23,8.50
2015,04,02,11,24,8.50
2015,04,02,11,25,8.50
2015,04,02,11,26,8.50
2015,04,02,11,27,8.50
2015,04,02,11,28,8.70
2015,04,02,11,29,8.80
2015,04,02,11,30,8.80
2015,04,02,11,31,8.80
2015,04,02,11,32,8.80
2015,04,02,11,33,8.80
2015,04,02,11,34,8.80
2015,04,02,11,35,8.80
2015,04,02,11,36,8.80
2015,04,02,11,37,8.70
2015,04,02,11,38,8.70
2015,04,02,11,39,8.70
2015,04,02,11,40,8.60
2015,04,02,11,41,8.60
2015,04,02,11,42,8.50
2015,04,02,11,43,8.50
2015,04,02,11,44,8.50
2015,04,02,11,45,8.50
2015,04,02,11,46,8.60
2015,04,02,11,47,8.60
2015,04,02,11,48,8.70
2015,04,02,11,49,8.70
2015,04,02,11,50,8.80
2015,04,02,11,51,8.80
2015,04,02,11,52,8.80
2015,04,02,11,53,8.80
2015,04,02,11,54,8.70
2015,04,02,11,55,8.70
2015,04,02,11,56,8.70
2015,04,02,11,57,8.70
2015,04,02,11,58,8.60
2015,04,02,11,59,8.60
2015,04,02,12,00,8.50
2015,04,02,12,01,8.50
2015,04,02,12,02,8.40
2015,04,02,12,03,8.40
2015,04,02,12,04,8.40
2015,04,02,12,05,8.50
2015,04,02,12,06,8.50
2015,04,02,12,07,8.50
2015,04,02,12,08,8.50
2015,04,02,12,09,8.50
2015,04,02,12,10,8.60
2015,04,02,12,11,8.70
2015,04,02,12,12,8.70
2015,04,02,12,13,8.70
2015,04,02,12,14,8.70
2015,04,02,12,15,8.70
2015,04,02,12,16,8.70
2015,04,02,12,17,8.70
2015,04,02,12,18,8.70
2015,04,02,12,19,8.60
2015,04,02,12,20,8.60
2015,04,02,12,21,8.50
2015,04,02,12,22,8.50
2015,04,02,12,23,8.40
2015,04,02,12,24,8.40
2015,04,02,12,25,8.40
2015,04,02,12,26,8.40
2015,04,02,12,27,8.50
2015,04,02,12,28,8.50
2015,04,02,12,29,8.60
2015,04,02,12,30,8.60
2015,04,02,12,31,8.60
2015,04,02,12,32,8.60
2015,04,02,12,33,8.60
2015,04,02,12,34,8.70
2015,04,02,12,35,8.70
2015,04,02,12,36,8.80
2015,04,02,12,37,8.80
2015,04,02,12,38,8.80
2015,04,02,12,39,8.80
2015,04,02,12,40,8.80
2015,04,02,12,41,8.70
2015,04,02,12,42,8.70
2015,04,02,12,43,8.60
2015,04,02,12,44,8.60
2015,04,02,12,45,8.60
2015,04,02,12,46,8.60
2015,04,02,12,47,8.60
2015,04,02,12,48,8.60
2015,04,02,12,49,8.60
2015,04,02,12,50,8.60
2015,04,02,12,51,8.60
2015,04,02,12,52,8.70
2015,04,02,12,53,8.80
2015,04,02,12,54,8.80
2015,04,02,12,55,8.90
2015,04,02,12,56,8.90
2015,04,02,12,57,9.00
2015,04,02,12,58,9.00
2015,04,02,12,59,9.00
2015,04,02,13,00,8.90
2015,04,02,13,01,8.90
2015,04,02,13,02,8.80
2015,04,02,13,03,8.80
2015,04,02,13,04,8.80
2015,04,02,13,05,8.80
2015,04,02,13,06,8.80
2015,04,02,13,07,8.80
2015,04,02,13,08,8.80
2015,04,02,13,09,8.80
2015,04,02,13,10,8.80
2015,04,02,13,11,8.80
2015,04,02,13,12,8.70
2015,04,02,13,13,8.70
2015,04,02,13,14,8.70
2015,04,02,13,15,8.70
2015,04,02,13,16,8.70
2015,04,02,13,17,8.70
2015,04,02,13,18,8.80
2015,04,02,13,19,8.80
2015,04,02,13,20,8.90
2015,04,02,13,21,8.90
2015,04,02,13,22,9.00
2015,04,02,13,23,9.10
2015,04,02,13,24,9.10
2015,04,02,13,25,9.10
2015,04,02,13,26,9.20
2015,04,02,13,27,9.30
2015,04,02,13,28,9.30
2015,04,02,13,29,9.30
2015,04,02,13,30,9.40
2015,04,02,13,31,9.40
2015,04,02,13,32,9.40
2015,04,02,13,33,9.40
2015,04,02,13,34,9.40
2015,04,02,13,35,9.40
2015,04,02,13,36,9.40
2015,04,02,13,37,9.40
2015,04,02,13,38,9.40
2015,04,02,13,39,9.40
2015,04,02,13,40,9.40
2015,04,02,13,41,9.40
2015,04,02,13,42,9.40
2015,04,02,13,43,9.30
2015,04,02,13,44,9.30
2015,04,02,13,45,9.30
2015,04,02,13,46,9.30
2015,04,02,13,47,9.30
2015,04,02,13,48,9.30
2015,04,02,13,49,9.20
2015,04,02,13,50,9.20
2015,04,02,13,51,9.20
2015,04,02,13,52,9.20
2015,04,02,13,53,9.20
2015,04,02,13,54,9.20
2015,04,02,13,55,9.10
2015,04,02,13,56,9.10
2015,04,02,13,57,9.10
2015,04,02,13,58,9.10
2015,04,02,13,59,9.00
2015,04,02,14,00,9.00
2015,04,02,14,01,9.00
2015,04,02,14,02,8.90
2015,04,02,14,03,8.90
2015,04,02,14,04,8.90
2015,04,02,14,05,8.90
2015,04,02,14,06,9.00
2015,04,02,14,07,9.00
2015,04,02,14,08,9.10
2015,04,02,14,09,9.10
2015,04,02,14,10,9.10
2015,04,02,14,11,9.10
2015,04,02,14,12,9.10
2015,04,02,14,13,9.10
2015,04,02,14,14,9.10
2015,04,02,14,15,9.10
2015,04,02,14,16,9.20
2015,04,02,14,17,9.20
2015,04,02,14,18,9.20
2015,04,02,14,19,9.20
2015,04,02,14,20,9.20
2015,04,02,14,21,9.10
2015,04,02,14,22,9.10
2015,04,02,14,23,9.10
2015,04,02,14,24,9.10
2015,04,02,14,25,9.10
2015,04,02,14,26,9.00
2015,04,02,14,27,9.00
2015,04,02,14,28,9.00
2015,04,02,14,29,9.00
2015,04,02,14,30,9.00
2015,04,02,14,31,9.00
2015,04,02,14,32,9.00
2015,04,02,14,33,9.00
2015,04,02,14,34,9.00
2015,04,02,14,35,9.00
2015,04,02,14,36,9.00
2015,04,02,14,37,9.00
2015,04,02,14,38,9.00
2015,04,02,14,39,9.00
2015,04,02,14,40,9.00
2015,04,02,14,41,9.00
2015,04,02,14,42,9.00
2015,04,02,14,43,9.00
2015,04,02,14,44,9.00
2015,04,02,14,45,9.00
2015,04,02,14,46,9.00
2015,04,02,14,47,9.00
2015,04,02,14,48,9.00
2015,04,02,14,49,9.10
2015,04,02,14,50,9.20
2015,04,02,14,51,9.20
2015,04,02,14,52,9.20
2015,04,02,14,53,9.30
2015,04,02,14,54,9.30
2015,04,02,14,55,9.40
2015,04,02,14,56,9.40
2015,04,02,14,57,9.40
2015,04,02,14,58,9.50
2015,04,02,14,59,9.50
2015,04,02,15,00,9.60
2015,04,02,15,01,9.60
2015,04,02,15,02,9.60
2015,04,02,15,03,9.70
2015,04,02,15,04,9.70
2015,04,02,15,05,9.70
2015,04,02,15,06,9.70
2015,04,02,15,07,9.70
2015,04,02,15,08,9.70
2015,04,02,15,09,9.70
2015,04,02,15,10,9.70
2015,04,02,15,11,9.60
2015,04,02,15,12,9.60
2015,04,02,15,13,9.70
2015,04,02,15,14,9.70
2015,04,02,15,15,9.70
2015,04,02,15,16,9.70
2015,04,02,15,17,9.70
2015,04,02,15,18,9.70
2015,04,02,15,19,9.70
2015,04,02,15,20,9.60
2015,04,02,15,21,9.60
2015,04,02,15,22,9.70
2015,04,02,15,23,9.70
2015,04,02,15,24,9.70
2015,04,02,15,25,9.70
2015,04,02,15,26,9.60
2015,04,02,15,27,9.70
2015,04,02,15,28,9.70
2015,04,02,15,29,9.60
2015,04,02,15,30,9.60
2015,04,02,15,31,9.60
2015,04,02,15,32,9.60
2015,04,02,15,33,9.50
2015,04,02,15,34,9.50
2015,04,02,15,35,9.50
2015,04,02,15,36,9.50
2015,04,02,15,37,9.50
2015,04,02,15,38,9.50
2015,04,02,15,39,9.50
2015,04,02,15,40,9.50
2015,04,02,15,41,9.60
2015,04,02,15,42,9.50
2015,04,02,15,43,9.60
2015,04,02,15,44,9.60
2015,04,02,15,45,9.50
2015,04,02,15,46,9.50
2015,04,02,15,47,9.50
2015,04,02,15,48,9.50
2015,04,02,15,49,9.50
2015,04,02,15,50,9.50
2015,04,02,15,51,9.50
2015,04,02,15,52,9.60
2015,04,02,15,53,9.60
2015,04,02,15,54,9.60
2015,04,02,15,55,9.60
2015,04,02,15,56,9.70
2015,04,02,15,57,9.70
2015,04,02,15,58,9.70
2015,04,02,15,59,9.70
2015,04,02,16,00,9.80
2015,04,02,16,01,9.80
2015,04,02,16,02,9.80
2015,04,02,16,03,9.80
2015,04,02,16,04,9.80
2015,04,02,16,05,9.90
2015,04,02,16,06,9.90
2015,04,02,16,07,9.90
2015,04,02,16,08,9.90
2015,04,02,16,09,9.90
2015,04,02,16,10,9.80
2015,04,02,16,11,9.80
2015,04,02,16,12,9.80
2015,04,02,16,13,9.80
2015,04,02,16,14,9.80
2015,04,02,16,15,9.80
2015,04,02,16,16,9.80
2015,04,02,16,17,9.80
2015,04,02,16,18,9.80
2015,04,02,16,19,9.80
2015,04,02,16,20,9.80
2015,04,02,16,21,9.80
2015,04,02,16,22,9.80
2015,04,02,16,23,9.80
2015,04,02,16,24,9.80
2015,04,02,16,25,9.80
2015,04,02,16,26,9.70
2015,04,02,16,27,9.70
2015,04,02,16,28,9.70
2015,04,02,16,29,9.70
2015,04,02,16,30,9.70
2015,04,02,16,31,9.70
2015,04,02,16,32,9.70
2015,04,02,16,33,9.70
2015,04,02,16,34,9.80
2015,04,02,16,35,9.70
2015,04,02,16,36,9.70
2015,04,02,16,37,9.70
2015,04,02,16,38,9.80
2015,04,02,16,39,9.80
2015,04,02,16,40,9.80
2015,04,02,16,41,9.80
2015,04,02,16,42,9.80
2015,04,02,16,43,9.80
2015,04,02,16,44,9.80
2015,04,02,16,45,9.80
2015,04,02,16,46,9.80
2015,04,02,16,47,9.80
2015,04,02,16,48,9.80
2015,04,02,16,49,9.80
2015,04,02,16,50,9.90
2015,04,02,16,51,9.90
2015,04,02,16,52,9.90
2015,04,02,16,53,9.90
2015,04,02,16,54,9.90
2015,04,02,16,55,9.90
2015,04,02,16,56,9.90
2015,04,02,16,57,9.90
2015,04,02,16,58,9.90
2015,04,02,16,59,9.90
2015,04,02,17,00,9.90
2015,04,02,17,01,9.90
2015,04,02,17,02,9.90
2015,04,02,17,03,10.00
2015,04,02,17,04,10.00
2015,04,02,17,05,10.00
2015,04,02,17,06,10.00
2015,04,02,17,07,10.10
2015,04,02,17,08,10.10
2015,04,02,17,09,10.10
2015,04,02,17,10,10.00
2015,04,02,17,11,10.00
2015,04,02,17,12,10.00
2015,04,02,17,13,10.00
2015,04,02,17,14,10.00
2015,04,02,17,15,10.00
2015,04,02,17,16,10.00
2015,04,02,17,17,10.10
2015,04,02,17,18,10.10
2015,04,02,17,19,10.10
2015,04,02,17,20,10.10
2015,04,02,17,21,10.10
2015,04,02,17,22,10.10
2015,04,02,17,23,10.10
2015,04,02,17,24,10.10
2015,04,02,17,25,10.10
2015,04,02,17,26,10.10
2015,04,02,17,27,10.10
2015,04,02,17,28,10.10
2015,04,02,17,29,10.10
2015,04,02,17,30,10.10
2015,04,02,17,31,10.10
2015,04,02,17,32,10.10
2015,04,02,17,33,10.10
2015,04,02,17,34,10.10
2015,04,02,17,35,10.10
2015,04,02,17,36,10.10
2015,04,02,17,37,10.10
2015,04,02,17,38,10.10
2015,04,02,17,39,10.10
2015,04,02,17,40,10.10
2015,04,02,17,41,10.10
2015,04,02,17,42,10.10
2015,04,02,17,43,10.10
2015,04,02,17,44,10.10
2015,04,02,17,45,10.10
2015,04,02,17,46,10.10
2015,04,02,17,47,10.10
2015,04,02,17,48,10.10
2015,04,02,17,49,10.10
2015,04,02,17,50,10.10
2015,04,02,17,51,10.00
2015,04,02,17,52,10.00
2015,04,02,17,53,10.00
2015,04,02,17,54,10.00
2015,04,02,17,55,10.00
2015,04,02,17,56,10.00
2015,04,02,17,57,10.00
2015,04,02,17,58,10.00
2015,04,02,17,59,10.00
2015,04,02,18,00,10.00
2015,04,02,18,01,10.00
2015,04,02,18,02,10.00
2015,04,02,18,03,10.00